* Astronomy

Members Login
Username 
 
Password 
    Remember Me  
Post Info TOPIC: Asteroid 2014 BW2


L

Posts: 131433
Date:
RE: Asteroid 2014 BW2
Permalink  
 


Orbital elements:
2014 BW2                                            PHA, Earth MOID = 0.0242 AU
Epoch 2016 Jan. 13.0 TT = JDT 2457400.5                 MPC
M 245.16643              (2000.0)            P               Q
n   0.38074141     Peri.   26.45752     -0.98018872     +0.18040429
a   1.8853094      Node   163.31643     -0.19000966     -0.97300073
e   0.4776239      Incl.   16.54604     +0.05591418     -0.14395792
P   2.59           H   19.9           G   0.15           U   0

MPEC 2015 - X160



__________________


L

Posts: 131433
Date:
Permalink  
 

Orbital elements:
2014 BW2                                            PHA, Earth MOID = 0.0234 AU
Epoch 2013 Nov. 4.0 TT = JDT 2456600.5                  MPC
M 300.57692              (2000.0)            P               Q
n   0.38140564     Peri.   26.39944     -0.98043107     +0.17910442
a   1.8831199      Node   163.29999     -0.18873844     -0.97318613
e   0.4767551      Incl.   16.51977     +0.05597061     -0.14432730
P   2.58           H   19.8           G   0.15           U   6

MPEC 2014 - B21



__________________
Page 1 of 1  sorted by
 
Quick Reply

Please log in to post quick replies.



Create your own FREE Forum
Report Abuse
Powered by ActiveBoard